Regional Weather Roundup
Issued by NWS

Home | Current Version | Previous Version | Text Only | Print | Product List | Glossary On
Versions: 1 2 3 4 5 6 7 8 9 10 11 12 13 14 15 16 17 18 19 20 21 22 23 24 25 26 27 28 29
000
ASUS46 KSEW 300910
RWRWA

WASHINGTON REGIONAL WEATHER ROUNDUP
NATIONAL WEATHER SERVICE SEATTLE WA
200 AM PDT SAT APR 30 2016

NOTE:"FAIR" INDICATES FEW OR NO CLOUDS BELOW 12,000 FEET WITH NO
SIGNIFICANT WEATHER AND/OR OBSTRUCTIONS TO VISIBILITY.

WAZ505-507>509-301000-
SEATTLE, TACOMA, EVERETT, AND VICINITY

CITY           SKY/WX    TMP DP  RH WIND       PRES   REMARKS
EVERETT        CLEAR     47  41  80 VRB5      30.27R
BOEING FIELD   MOCLDY    52  46  80 CALM      30.28R
RENTON         PTCLDY    48  46  93 CALM      30.27R
SEATAC AIRPORT MOCLDY    50  44  80 NE3       30.27R
JBLM-MCCHORD   CLEAR     43  42  99 S3        30.27R
PUYALLUP       CLOUDY    43  43 100 CALM      30.27R
BREMERTON      CLEAR     43  43 100 E3        30.28S
JBLM-FT LEWIS  CLEAR     46  45  96 CALM      30.27R
TACOMA NARROWS CLEAR     47  42  83 CALM      30.28R
$$

WAZ001-503-506-510-514-515-301000-
NORTH INTERIOR

CITY           SKY/WX    TMP DP  RH WIND       PRES   REMARKS
BELLINGHAM     CLEAR     51  46  83 S9        30.26R
FRIDAY HARBOR  CLEAR     43  41  93 CALM      30.27R
EASTSOUND      CLEAR     45  43  93 CALM      30.24S
PORT ANGELES   CLEAR     47  38  71 W10       30.27R
EDIZ HOOK      FAIR      49  40  72 W7        30.27R
PORT TOWNSEND  MOCLDY    50  43  76 NW7       30.28R
NAS WHIDBEY    PTCLDY    50  47  89 W8        30.30R
ARLINGTON      CLEAR     43  36  75 CALM      30.29R
BURLINGTON     CLEAR     45  45 100 CALM      30.27R
$$

WAZ020-022-039-040-504-511-512-301000-
SOUTHWEST INTERIOR

CITY           SKY/WX    TMP DP  RH WIND       PRES   REMARKS
SHELTON        CLEAR     43  39  86 CALM      30.25R
OLYMPIA        CLEAR     43  40  89 SE3       30.28R
CHEHALIS       CLOUDY    43  43 100 SW3       30.28S
KELSO          CLOUDY    45  39  81 CALM      30.32S
VANCOUVER      CLOUDY    50  41  71 VRB6      30.29R
SCAPPOOSE, OR  CLEAR     47  39  74 N5        30.28R
PORTLAND, OR   MOCLDY    50  42  74 N3        30.29R
$$

WAZ021-516-517-301000-
WASHINGTON COAST

CITY           SKY/WX    TMP DP  RH WIND       PRES   REMARKS
FORKS          CLOUDY    48  45  89 CALM      30.29R
HOQUIAM          N/A    N/A N/A N/A MISG      30.29R
ASTORIA, OR    MOCLDY    51  42  71 NW8       30.30S
$$

WAZ019-023-024-040-518-519-301000-
CASCADE MOUNTAINS AND COLUMBIA GORGE

CITY           SKY/WX    TMP DP  RH WIND       PRES   REMARKS
STAMPEDE PASS  FOG       35  33  92 SW6       30.19R VSB 1/4
TROUTDALE, OR  CLOUDY    52  42  69 VRB5      30.29R
THE DALLES, OR CLEAR     54  42  64 NW8       30.17R
$$

WAZ026-027-041>044-520-521-301000-
EAST SLOPES

CITY           SKY/WX    TMP DP  RH WIND       PRES   REMARKS
OMAK           MOCLDY    52  38  58 N10       30.10R
WENATCHEE      MOCLDY    54  34  46 NW15      30.12R
ELLENSBURG     CLOUDY    50  35  56 NW23G29   30.13R
YAKIMA         PTCLDY    54  32  43 NW9       30.13S
$$

WAZ028-034-035-301000-
COLUMBIA BASIN

CITY           SKY/WX    TMP DP  RH WIND       PRES   REMARKS
EPHRATA        CLOUDY    54  36  50 NW14      30.07F
MOSES LAKE     CLOUDY    50  40  68 NW7       30.09R
PASCO          CLOUDY    54  37  52 SW7       30.11R
HERMISTON, OR  CLOUDY    52  40  63 SW10      30.12R
$$

WAZ036>038-301000-
NORTHEAST WASHINGTON

CITY           SKY/WX    TMP DP  RH WIND       PRES   REMARKS
SPOKANE GEIGER LGT RAIN  47  44  90 SE8       30.08R
SPOKANE FELTS  CLOUDY    48  45  89 CALM      30.09R
FAIRCHILD AFB  LGT RAIN  46  46 100 SE8       30.07R
COEURDALENE,ID CLOUDY    46  45  93 CALM      30.07S
DEER PARK      CLOUDY    47  44  90 NE3       30.09R
$$

WAZ029>033-301000-
SOUTHEAST WASHINGTON

CITY           SKY/WX    TMP DP  RH WIND       PRES   REMARKS
PULLMAN        LGT RAIN  47  45  93 W5        30.09S FOG
LEWISTON, ID   LGT RAIN  49  47  93 NE3       30.09S
WALLA WALLA    CLOUDY    50  42  74 S10       30.11R
PENDLETON, OR  CLOUDY    50  37  61 SW12      30.12R
$$




USA.gov is the U.S. government's official web portal to all federal, state and local government web resources and services.